Flag Weather past 2 weeks in Zürich, Zurich, Switzerland

Now
41 °F

Quite cool.


Feels Like: 36 °F
Forecast: 38 / 54 °F
Wind: 7 mph from Northeast

Location: Zurich Town / Ville.

Current Time: Nov 28, 2014 at 5:22:08 AM

Latest Report: Nov 28, 2014 at 4:00 AM


Visibility: N/A

Pressure: 29.79 "Hg

Humidity: 96%

Dew point: 40 °F

Location of ZürichLocation

Historic Weather in Zürich — Graph

°F

Zürich temperature yesterday

Maximum temperature yesterday: 45 °F (at 3:00 PM)
Minimum temperature yesterday: 42 °F (at 11:00 PM)
Average temperature yesterday: 44 °F

Past Weeks' High & Low Weather Summary

 TemperatureHumidityPressure
High56 °F (Nov 24, 3:00 PM)100% (Nov 20, 5:00 AM)30.32 "Hg (Nov 20, 5:00 AM)
Low35 °F (Nov 20, 5:00 AM)66% (Nov 21, 3:00 PM)29.56 "Hg (Nov 15, 9:00 PM)
Average44 °F91%29.99 "Hg
* Reported Nov 13 3:00 AM — Nov 28 3:00 AM, Zürich, Weather by CustomWeather, © 2014

Note: Actual official high and low records may vary slightly from our data, if they occured in-between our weather recording intervals... More about our weather records

Advertising

Zürich weather history for previous 24 hours

 ConditionsComfort  
Time TempWeatherWind HumidityBarometerVisibility
3:00 AM
Nov 28
41 °FQuite cool.8 mph97%29.80 "HgN/A
2:00 AM41 °FQuite cool.7 mph97%29.81 "HgN/A
1:00 AM41 °FQuite cool.5 mph97%29.82 "HgN/A
12:00 AM42 °FQuite cool.3 mph97%29.82 "HgN/A
11:00 PM
Nov 27
42 °FQuite cool.2 mph97%29.83 "HgN/A
10:00 PM43 °FQuite cool.1 mph97%29.82 "HgN/A
9:00 PM43 °FQuite cool.3 mph97%29.81 "HgN/A
8:00 PM43 °FQuite cool.2 mph96%29.82 "HgN/A
7:00 PM44 °FQuite cool.2 mph94%29.81 "HgN/A
6:00 PM45 °FQuite cool.2 mph93%29.80 "HgN/A
5:00 PM45 °FQuite cool.3 mph92%29.79 "HgN/A
4:00 PM45 °FCool.3 mph93%29.79 "HgN/A
3:00 PM45 °FCool.1 mph92%29.79 "HgN/A
2:00 PM45 °FQuite cool.1 mph93%29.80 "HgN/A
1:00 PM44 °FFog.1 mph94%29.81 "HgN/A
12:00 PM44 °FQuite cool.1 mph95%29.81 "HgN/A
11:00 AM44 °FQuite cool.1 mph96%29.83 "HgN/A
10:00 AM43 °FQuite cool.2 mph97%29.83 "HgN/A
9:00 AM43 °FQuite cool.3 mph97%29.82 "HgN/A
8:00 AM43 °FQuite cool.3 mph97%29.82 "HgN/A
7:00 AM43 °FQuite cool.2 mph97%29.82 "HgN/A
6:00 AM43 °FQuite cool.2 mph99%29.84 "HgN/A
5:00 AM43 °FQuite cool.3 mph97%29.84 "HgN/A
Weather by CustomWeather, © 2014

See weather overviewHow to use our weather pages